Location: Chircca
(13.7944°S, 72.0608°W)
Time: 06:17:54
(UTC+00:00)

YAOGAN 1 - Pass Details

Date: 14 July 2020
Orbit: 618 x 620 km, 97.9° (Epoch: 14 August)

Event Time Altitude Azimuth Distance (km) Brightness Sun altitude
Exits shadow 00:44:18 23° 231° (SW) 1,322 4.5 -30.3°
Maximum altitude 00:45:23 26° 256° (WSW) 1,233 4.5 -30.6°
Drops below altitude 10° 00:48:58 10° 312° (NW) 1,982 5.9 -31.4°
Sets 00:51:26 0° 325° (NW) 2,881 6.7 -32.0°
